{"data":{"norad_id":51958,"epoch":"2026-05-24T22:36:52.737120Z","epoch_age_seconds":84070,"freshness":"FRESH","line1":"1 51958U 22025C   26144.94227705  .00007259  00000+0  24535-3 0  9996","line2":"2 51958  53.1589  18.9091 0001384  81.9580 278.1579 15.31714956232857","mean_motion":15.31714956,"eccentricity":0.0001384,"inclination_deg":53.1589,"raan_deg":18.9091,"arg_perigee_deg":81.958,"mean_anomaly_deg":278.1579,"bstar":0.00024535,"rev_number":23285,"period_min":94.01226999575,"perigee_km":469.74753412477,"apogee_km":471.64329093655,"semimajor_km":6848.8324125307,"source":"CELESTRAK","updated_at":"2026-05-25T13:38:16.990913Z"}}